No particular awareness of the weather is required.    There are no Weather-warnings


Meteo18 Weather Cam more information Meteo18 Weather Cam


Thunder radar more information blitzortung!


Rain radar more information rain snow radar


Visit our other weather sites:

Template documentation
and downloads

And another site



Weather Underground History page Text

Daily Summary for July 28, 2017 Units:  English    Metric   Both
« Previous Day
Next Day »
Daily Weekly Monthly Yearly Custom
  High: Low: Average:
Temperature: TemperatureC °F 14.0 °F 18.2 °F
Dew Point: DewpointC °F 12.0 °F 13.1 °F
Humidity: Humidity % 52 % 73 %
Wind Speed: WindSpeedKMH mph 0.0 mph 5.3 mph
Wind Gust: WindSpeedGustKMH mph - -
Wind:- - WSW
Pressure: PressurehPa in 1014.4 in -
Precipitation: 0.0 in    
Historical Graphs
 
 
Tabular Data for July 28, 2017
Time Temperature Dew Point Pressure Wind Wind Speed Wind Gust Humidity Rainfall Rate (Hourly)
TemperatureC °F DewpointC °F PressurehPa in Calm     Humidity % HourlyPrecipMM in
00:02 17.9 °F 16.2 °F 1014.4 in Calm     90 % 0.0 in
00:12 18.1 °F 16.4 °F 1014.4 in Calm   1.6 mph 90 % 0.0 in
00:17 18.1 °F 16.3 °F 1014.4 in Calm   1.6 mph 89 % 0.0 in
00:22 18.0 °F 16.2 °F 1014.4 in SW 1.6 mph 1.6 mph 89 % 0.0 in
00:32 17.8 °F 15.4 °F 1014.4 in SW 3.2 mph 3.2 mph 86 % 0.0 in
00:42 17.9 °F 15.0 °F 1014.4 in Calm   4.8 mph 83 % 0.0 in
00:52 17.8 °F 14.9 °F 1014.4 in WSW 1.6 mph 4.8 mph 83 % 0.0 in
00:57 17.8 °F 14.9 °F 1014.8 in WSW 1.6 mph 4.8 mph 83 % 0.0 in
01:02 17.7 °F 14.8 °F 1014.8 in WSW 3.2 mph 4.8 mph 83 % 0.0 in
01:07 17.7 °F 14.6 °F 1014.8 in WSW 1.6 mph 3.2 mph 82 % 0.0 in
01:12 17.6 °F 14.5 °F 1014.8 in West 4.8 mph 4.8 mph 82 % 0.0 in
01:17 17.5 °F 14.2 °F 1014.8 in West 1.6 mph 6.4 mph 81 % 0.0 in
01:22 17.4 °F 13.9 °F 1014.8 in West 3.2 mph 8.0 mph 80 % 0.0 in
01:32 17.2 °F 13.9 °F 1014.8 in WSW 1.6 mph 8.0 mph 81 % 0.0 in
01:37 17.1 °F 13.8 °F 1015.1 in WSW 4.8 mph 6.4 mph 81 % 0.0 in
01:42 17.1 °F 13.8 °F 1015.1 in WSW 4.8 mph 6.4 mph 81 % 0.0 in
01:47 17.0 °F 13.7 °F 1015.1 in WSW 3.2 mph 6.4 mph 81 % 0.0 in
01:52 16.9 °F 13.6 °F 1015.1 in Calm   6.4 mph 81 % 0.0 in
01:57 16.9 °F 13.8 °F 1015.1 in WSW 1.6 mph 6.4 mph 82 % 0.0 in
02:02 16.8 °F 13.7 °F 1015.5 in SW 1.6 mph 4.8 mph 82 % 0.0 in
02:07 16.8 °F 13.7 °F 1015.5 in WSW 1.6 mph 4.8 mph 82 % 0.0 in
02:12 16.7 °F 13.6 °F 1015.5 in Calm   4.8 mph 82 % 0.0 in
02:17 16.6 °F 13.7 °F 1015.5 in West 1.6 mph 4.8 mph 83 % 0.0 in
02:22 16.4 °F 13.5 °F 1015.5 in WSW 1.6 mph 4.8 mph 83 % 0.0 in
02:27 16.4 °F 13.5 °F 1015.5 in WSW 1.6 mph 4.8 mph 83 % 0.0 in
02:32 16.3 °F 13.4 °F 1015.5 in Calm   4.8 mph 83 % 0.0 in
02:42 16.1 °F 13.2 °F 1015.5 in Calm   4.8 mph 83 % 0.0 in
02:47 16.1 °F 13.2 °F 1015.5 in SW 3.2 mph 3.2 mph 83 % 0.0 in
02:52 15.9 °F 13.0 °F 1015.5 in West 3.2 mph 8.0 mph 83 % 0.0 in
03:02 15.8 °F 12.9 °F 1015.8 in West 3.2 mph 8.0 mph 83 % 0.0 in
03:12 15.7 °F 12.8 °F 1015.5 in WSW 3.2 mph 6.4 mph 83 % 0.0 in
03:17 15.6 °F 12.7 °F 1015.5 in West 1.6 mph 6.4 mph 83 % 0.0 in
03:22 15.6 °F 12.7 °F 1015.5 in West 1.6 mph 6.4 mph 83 % 0.0 in
03:27 15.4 °F 12.7 °F 1015.5 in WSW 1.6 mph 6.4 mph 84 % 0.0 in
03:32 15.4 °F 12.7 °F 1015.5 in West 1.6 mph 6.4 mph 84 % 0.0 in
03:37 15.3 °F 12.6 °F 1015.5 in West 3.2 mph 6.4 mph 84 % 0.0 in
03:42 15.2 °F 12.5 °F 1015.5 in West 3.2 mph 6.4 mph 84 % 0.0 in
03:52 15.0 °F 12.5 °F 1015.5 in West 4.8 mph 8.0 mph 85 % 0.0 in
03:57 14.9 °F 12.4 °F 1015.8 in WSW 1.6 mph 8.0 mph 85 % 0.0 in
04:02 15.0 °F 12.5 °F 1015.8 in West 6.4 mph 8.0 mph 85 % 0.0 in
04:12 15.0 °F 12.5 °F 1015.8 in West 1.6 mph 9.7 mph 85 % 0.0 in
04:17 14.9 °F 12.4 °F 1015.8 in WSW 1.6 mph 9.7 mph 85 % 0.0 in
04:22 14.9 °F 12.4 °F 1015.8 in WNW 4.8 mph 9.7 mph 85 % 0.0 in
04:27 14.9 °F 12.4 °F 1016.1 in West 3.2 mph 6.4 mph 85 % 0.0 in
04:32 14.9 °F 12.6 °F 1016.1 in West 3.2 mph 6.4 mph 86 % 0.0 in
04:37 14.9 °F 12.4 °F 1016.1 in WSW 3.2 mph 6.4 mph 85 % 0.0 in
04:47 14.9 °F 12.4 °F 1016.1 in West 3.2 mph 8.0 mph 85 % 0.0 in
04:52 14.9 °F 12.6 °F 1016.1 in WSW 4.8 mph 8.0 mph 86 % 0.0 in
04:57 14.9 °F 12.6 °F 1016.1 in West 3.2 mph 8.0 mph 86 % 0.0 in
05:02 15.0 °F 12.5 °F 1016.1 in West 11.3 mph 11.3 mph 85 % 0.0 in
05:12 15.1 °F 12.6 °F 1016.1 in WSW 4.8 mph 11.3 mph 85 % 0.0 in
05:17 15.1 °F 12.6 °F 1016.1 in NW 3.2 mph 11.3 mph 85 % 0.0 in
05:27 15.0 °F 12.5 °F 1016.1 in WSW 4.8 mph 12.9 mph 85 % 0.0 in
05:32 15.0 °F 12.5 °F 1016.1 in WSW 3.2 mph 12.9 mph 85 % 0.0 in
05:42 14.9 °F 12.4 °F 1016.1 in West 1.6 mph 12.9 mph 85 % 0.0 in
05:47 14.8 °F 12.5 °F 1016.5 in Calm   12.9 mph 86 % 0.0 in
05:57 14.6 °F 12.5 °F 1016.5 in WSW 6.4 mph 9.7 mph 87 % 0.0 in
06:02 14.6 °F 12.5 °F 1016.5 in West 1.6 mph 9.7 mph 87 % 0.0 in
06:12 14.5 °F 12.4 °F 1016.8 in WSW 1.6 mph 9.7 mph 87 % 0.0 in
06:17 14.5 °F 12.2 °F 1016.8 in West 4.8 mph 9.7 mph 86 % 0.0 in
06:22 14.4 °F 12.3 °F 1016.8 in West 4.8 mph 14.5 mph 87 % 0.0 in
06:32 14.3 °F 12.2 °F 1016.8 in West 3.2 mph 14.5 mph 87 % 0.0 in
06:42 14.2 °F 12.1 °F 1017.2 in SW 4.8 mph 11.3 mph 87 % 0.0 in
06:47 14.2 °F 12.1 °F 1017.2 in SSW 4.8 mph 11.3 mph 87 % 0.0 in
06:52 14.2 °F 12.1 °F 1017.2 in WSW 4.8 mph 9.7 mph 87 % 0.0 in
07:02 14.1 °F 12.1 °F 1017.2 in SW 6.4 mph 9.7 mph 88 % 0.0 in
07:12 14.0 °F 12.0 °F 1017.2 in SW 6.4 mph 11.3 mph 88 % 0.0 in
07:17 14.0 °F 12.2 °F 1017.2 in SW 6.4 mph 11.3 mph 89 % 0.0 in
07:22 14.0 °F 12.2 °F 1017.2 in West 6.4 mph 9.7 mph 89 % 0.0 in
07:32 14.0 °F 12.2 °F 1017.2 in Calm   11.3 mph 89 % 0.0 in
07:37 14.1 °F 12.3 °F 1017.2 in SW 6.4 mph 11.3 mph 89 % 0.0 in
07:42 14.1 °F 12.3 °F 1017.2 in SSW 3.2 mph 9.7 mph 89 % 0.0 in
07:47 14.2 °F 12.4 °F 1017.5 in WSW 1.6 mph 9.7 mph 89 % 0.0 in
07:52 14.2 °F 12.2 °F 1017.5 in WSW 4.8 mph 9.7 mph 88 % 0.0 in
07:57 14.2 °F 12.2 °F 1017.5 in South 3.2 mph 9.7 mph 88 % 0.0 in
08:02 14.3 °F 12.5 °F 1017.5 in SW 6.4 mph 9.7 mph 89 % 0.0 in
08:12 14.3 °F 12.5 °F 1017.8 in West 4.8 mph 8.0 mph 89 % 0.0 in
08:17 14.3 °F 12.3 °F 1017.8 in WSW 6.4 mph 8.0 mph 88 % 0.0 in
08:22 14.4 °F 12.4 °F 1017.8 in West 6.4 mph 11.3 mph 88 % 0.0 in
08:32 14.7 °F 12.7 °F 1018.2 in WNW 6.4 mph 11.3 mph 88 % 0.0 in
08:37 14.8 °F 12.8 °F 1018.2 in WNW 4.8 mph 11.3 mph 88 % 0.0 in
08:42 14.8 °F 12.7 °F 1018.5 in West 6.4 mph 14.5 mph 87 % 0.0 in
08:52 14.9 °F 12.9 °F 1018.5 in West 4.8 mph 14.5 mph 88 % 0.0 in
08:57 14.9 °F 12.9 °F 1018.5 in WSW 3.2 mph 14.5 mph 88 % 0.0 in
09:02 14.9 °F 12.9 °F 1018.5 in West 3.2 mph 14.5 mph 88 % 0.0 in
09:12 15.0 °F 12.9 °F 1018.5 in WSW 3.2 mph 14.5 mph 87 % 0.0 in
09:17 15.1 °F 13.1 °F 1018.5 in SW 9.7 mph 14.5 mph 88 % 0.0 in
09:22 15.1 °F 13.1 °F 1018.5 in WSW 9.7 mph 12.9 mph 88 % 0.0 in
09:27 15.1 °F 13.0 °F 1018.5 in West 4.8 mph 12.9 mph 87 % 0.0 in
09:37 15.4 °F 13.4 °F 1018.5 in SW 4.8 mph 11.3 mph 88 % 0.0 in
09:42 15.5 °F 13.3 °F 1018.5 in WSW 8.0 mph 11.3 mph 87 % 0.0 in
09:52 15.4 °F 13.2 °F 1018.5 in WSW 9.7 mph 16.1 mph 87 % 0.0 in
10:02 15.6 °F 13.4 °F 1018.5 in SW 1.6 mph 17.7 mph 87 % 0.0 in
10:12 15.8 °F 13.5 °F 1018.8 in West 6.4 mph 19.3 mph 86 % 0.0 in
10:17 15.9 °F 13.4 °F 1018.8 in SW 4.8 mph 19.3 mph 85 % 0.0 in
10:22 16.2 °F 13.7 °F 1018.8 in WSW 8.0 mph 17.7 mph 85 % 0.0 in
10:32 16.7 °F 13.8 °F 1018.8 in West 3.2 mph 20.9 mph 83 % 0.0 in
10:42 16.8 °F 13.5 °F 1018.8 in West 6.4 mph 20.9 mph 81 % 0.0 in
10:52 16.9 °F 13.8 °F 1018.8 in SSW 6.4 mph 16.1 mph 82 % 0.0 in
10:57 17.1 °F 13.8 °F 1018.8 in WSW 8.0 mph 16.1 mph 81 % 0.0 in
11:02 17.2 °F 14.1 °F 1018.5 in SSW 8.0 mph 16.1 mph 82 % 0.0 in
11:12 17.4 °F 13.7 °F 1018.5 in WSW 6.4 mph 16.1 mph 79 % 0.0 in
11:17 17.5 °F 13.6 °F 1018.5 in SW 11.3 mph 16.1 mph 78 % 0.0 in
11:22 17.7 °F 13.6 °F 1018.5 in West 8.0 mph 17.7 mph 77 % 0.0 in
11:27 18.0 °F 13.9 °F 1018.5 in WSW 6.4 mph 17.7 mph 77 % 0.0 in
11:32 18.2 °F 13.7 °F 1018.5 in SSW 6.4 mph 17.7 mph 75 % 0.0 in
11:42 18.3 °F 13.6 °F 1018.5 in SSW 6.4 mph 14.5 mph 74 % 0.0 in
11:47 18.7 °F 14.6 °F 1018.5 in SW 9.7 mph 14.5 mph 77 % 0.0 in
11:52 18.9 °F 14.2 °F 1018.5 in WSW 4.8 mph 20.9 mph 74 % 0.0 in
12:02 18.6 °F 13.7 °F 1018.5 in West 4.8 mph 20.9 mph 73 % 0.0 in
12:12 18.6 °F 13.7 °F 1018.8 in WSW 9.7 mph 17.7 mph 73 % 0.0 in
12:17 18.6 °F 13.5 °F 1018.8 in SW 8.0 mph 17.7 mph 72 % 0.0 in
12:22 18.6 °F 13.2 °F 1018.8 in WSW 8.0 mph 20.9 mph 71 % 0.0 in
12:32 18.8 °F 13.6 °F 1018.8 in SSW 6.4 mph 20.9 mph 72 % 0.0 in
12:37 18.9 °F 13.1 °F 1018.5 in SSW 11.3 mph 16.1 mph 69 % 0.0 in
12:42 19.1 °F 13.1 °F 1018.8 in SW 9.7 mph 16.1 mph 68 % 0.0 in
12:47 19.2 °F 12.5 °F 1018.8 in WSW 8.0 mph 16.1 mph 65 % 0.0 in
12:52 19.5 °F 12.7 °F 1018.8 in SW 11.3 mph 20.9 mph 65 % 0.0 in
12:57 19.6 °F 12.8 °F 1018.8 in SW 3.2 mph 20.9 mph 65 % 0.0 in
13:02 19.9 °F 12.9 °F 1018.8 in WSW 9.7 mph 20.9 mph 64 % 0.0 in
13:12 20.2 °F 12.9 °F 1018.8 in SSW 9.7 mph 17.7 mph 63 % 0.0 in
13:17 20.4 °F 13.8 °F 1018.8 in SW 12.9 mph 17.7 mph 66 % 0.0 in
13:22 20.2 °F 12.2 °F 1018.8 in West 4.8 mph 19.3 mph 60 % 0.0 in
13:32 20.0 °F 12.2 °F 1018.5 in WSW 11.3 mph 19.3 mph 61 % 0.0 in
13:37 20.3 °F 12.5 °F 1018.5 in WSW 8.0 mph 19.3 mph 61 % 0.0 in
13:42 20.4 °F 12.9 °F 1018.5 in West 9.7 mph 19.3 mph 62 % 0.0 in
13:52 20.2 °F 12.2 °F 1018.5 in WNW 12.9 mph 19.3 mph 60 % 0.0 in
14:02 20.5 °F 12.2 °F 1018.5 in WNW 8.0 mph 20.9 mph 59 % 0.0 in
14:12 21.1 °F 13.3 °F 1018.2 in SW 8.0 mph 22.5 mph 61 % 0.0 in
14:17 21.2 °F 13.1 °F 1018.2 in SW 19.3 mph 22.5 mph 60 % 0.0 in
14:27 21.2 °F 12.6 °F 1018.2 in SSW 4.8 mph 22.5 mph 58 % 0.0 in
14:32 21.3 °F 12.7 °F 1018.2 in SSW 14.5 mph 22.5 mph 58 % 0.0 in
14:37 21.2 °F 12.3 °F 1018.2 in South 9.7 mph 22.5 mph 57 % 0.0 in
14:42 21.1 °F 12.2 °F 1018.2 in SSW 6.4 mph 20.9 mph 57 % 0.0 in
14:52 21.3 °F 12.4 °F 1017.8 in West 9.7 mph 20.9 mph 57 % 0.0 in
15:02 21.4 °F 12.3 °F 1017.8 in WSW 8.0 mph 24.1 mph 56 % 0.0 in
15:12 21.2 °F 12.3 °F 1017.8 in SW 11.3 mph 24.1 mph 57 % 0.0 in
15:17 21.5 °F 12.9 °F 1017.8 in SW 8.0 mph 24.1 mph 58 % 0.0 in
15:27 21.7 °F 12.5 °F 1017.8 in West 9.7 mph 22.5 mph 56 % 0.0 in
15:32 22.2 °F 13.0 °F 1017.8 in West 9.7 mph 20.9 mph 56 % 0.0 in
15:42 22.3 °F 12.0 °F 1017.8 in West 12.9 mph 20.9 mph 52 % 0.0 in
15:47 22.2 °F 12.2 °F 1017.8 in WNW 12.9 mph 20.9 mph 53 % 0.0 in
15:52 22.1 °F 12.9 °F 1017.8 in SW 11.3 mph 20.9 mph 56 % 0.0 in
15:57 22.3 °F 12.5 °F 1017.8 in SW 12.9 mph 20.9 mph 54 % 0.0 in
16:02 22.2 °F 12.2 °F 1017.8 in SSW 11.3 mph 20.9 mph 53 % 0.0 in
16:12 22.1 °F 12.4 °F 1017.8 in WNW 11.3 mph 22.5 mph 54 % 0.0 in
16:22 22.6 °F 12.5 °F 1017.8 in SW 9.7 mph 19.3 mph 53 % 0.0 in
16:32 22.3 °F 12.5 °F 1017.8 in SW 9.7 mph 24.1 mph 54 % 0.0 in
16:42 22.6 °F 12.5 °F 1017.5 in SW 12.9 mph 24.1 mph 53 % 0.0 in
16:47 22.6 °F 12.8 °F 1017.5 in WNW 4.8 mph 19.3 mph 54 % 0.0 in
16:52 22.6 °F 12.5 °F 1017.5 in WSW 6.4 mph 19.3 mph 53 % 0.0 in
17:02 22.4 °F 12.1 °F 1017.5 in SW 8.0 mph 20.9 mph 52 % 0.0 in
17:12 22.4 °F 12.6 °F 1017.5 in NW 8.0 mph 20.9 mph 54 % 0.0 in
17:17 22.4 °F 12.1 °F 1017.5 in West 3.2 mph 16.1 mph 52 % 0.0 in
17:22 22.4 °F 12.3 °F 1017.5 in NW 3.2 mph 16.1 mph 53 % 0.0 in
17:32 22.9 °F 13.1 °F 1017.2 in West 3.2 mph 16.1 mph 54 % 0.0 in
17:42 23.1 °F 12.7 °F 1017.2 in West 4.8 mph 20.9 mph 52 % 0.0 in
17:52 22.7 °F 12.6 °F 1017.2 in WSW 1.6 mph 14.5 mph 53 % 0.0 in
17:57 22.7 °F 13.2 °F 1017.2 in SSW 3.2 mph 14.5 mph 55 % 0.0 in
18:02 22.8 °F 12.7 °F 1017.2 in SW 12.9 mph 14.5 mph 53 % 0.0 in
18:07 22.8 °F 12.7 °F 1017.2 in West 4.8 mph 16.1 mph 53 % 0.0 in
18:12 22.7 °F 12.9 °F 1017.2 in WSW 6.4 mph 16.1 mph 54 % 0.0 in
18:17 22.8 °F 13.0 °F 1017.2 in WSW 3.2 mph 24.1 mph 54 % 0.0 in
18:22 22.9 °F 13.4 °F 1017.2 in SW 9.7 mph 24.1 mph 55 % 0.0 in
18:32 23.1 °F 13.0 °F 1017.2 in WSW 9.7 mph 14.5 mph 53 % 0.0 in
18:42 22.6 °F 12.8 °F 1017.2 in West 6.4 mph 17.7 mph 54 % 0.0 in
18:47 22.4 °F 12.9 °F 1017.2 in WSW 4.8 mph 17.7 mph 55 % 0.0 in
18:52 22.4 °F 12.6 °F 1017.2 in West 6.4 mph 17.7 mph 54 % 0.0 in
18:57 22.4 °F 12.9 °F 1017.5 in West 4.8 mph 16.1 mph 55 % 0.0 in
19:12 22.4 °F 13.2 °F 1017.2 in WSW 6.4 mph 16.1 mph 56 % 0.0 in
19:17 22.4 °F 13.2 °F 1017.2 in West 8.0 mph 16.1 mph 56 % 0.0 in
19:22 22.5 °F 13.0 °F 1017.5 in WSW 6.4 mph 16.1 mph 55 % 0.0 in
19:32 22.5 °F 13.0 °F 1017.2 in SW 8.0 mph 16.1 mph 55 % 0.0 in
19:42 22.3 °F 13.1 °F 1017.2 in West 11.3 mph 17.7 mph 56 % 0.0 in
19:52 22.2 °F 13.3 °F 1017.2 in SW 6.4 mph 17.7 mph 57 % 0.0 in
19:57 22.1 °F 13.2 °F 1017.2 in SW 9.7 mph 17.7 mph 57 % 0.0 in
20:02 22.1 °F 13.2 °F 1017.2 in SW 9.7 mph 16.1 mph 57 % 0.0 in
20:12 22.1 °F 13.4 °F 1017.2 in SW 9.7 mph 16.1 mph 58 % 0.0 in
20:17 21.9 °F 13.3 °F 1017.2 in SSW 8.0 mph 11.3 mph 58 % 0.0 in
20:22 21.9 °F 13.3 °F 1017.2 in SW 6.4 mph 14.5 mph 58 % 0.0 in
20:32 21.8 °F 13.4 °F 1017.2 in WSW 3.2 mph 14.5 mph 59 % 0.0 in
20:42 21.7 °F 13.6 °F 1017.2 in SSW 3.2 mph 14.5 mph 60 % 0.0 in
20:52 21.6 °F 13.5 °F 1017.2 in SW 4.8 mph 11.3 mph 60 % 0.0 in
20:57 21.6 °F 13.5 °F 1017.2 in WSW 1.6 mph 11.3 mph 60 % 0.0 in
21:02 21.5 °F 13.7 °F 1017.2 in SSW 4.8 mph 11.3 mph 61 % 0.0 in
21:12 21.3 °F 13.7 °F 1017.2 in SW 4.8 mph 9.7 mph 62 % 0.0 in
21:17 21.2 °F 13.4 °F 1017.2 in WSW 6.4 mph 8.0 mph 61 % 0.0 in
21:22 21.2 °F 13.6 °F 1017.2 in WSW 4.8 mph 9.7 mph 62 % 0.0 in
21:27 21.1 °F 13.5 °F 1017.5 in SW 3.2 mph 9.7 mph 62 % 0.0 in
21:32 20.9 °F 13.6 °F 1017.5 in SW 1.6 mph 9.7 mph 63 % 0.0 in
21:42 20.8 °F 13.5 °F 1017.5 in WSW 3.2 mph 6.4 mph 63 % 0.0 in
21:52 20.7 °F 13.6 °F 1017.5 in WSW 6.4 mph 8.0 mph 64 % 0.0 in
21:57 20.6 °F 13.6 °F 1017.5 in SW 4.8 mph 8.0 mph 64 % 0.0 in
22:02 20.5 °F 13.7 °F 1017.5 in SW 4.8 mph 8.0 mph 65 % 0.0 in
22:12 20.3 °F 13.5 °F 1017.5 in SSW 3.2 mph 8.0 mph 65 % 0.0 in
22:17 20.2 °F 13.6 °F 1017.8 in SW 4.8 mph 6.4 mph 66 % 0.0 in
22:22 20.2 °F 13.6 °F 1017.8 in SSW 3.2 mph 6.4 mph 66 % 0.0 in
22:42 19.8 °F 13.5 °F 1017.8 in WSW 4.8 mph 6.4 mph 67 % 0.0 in
22:47 19.8 °F 13.5 °F 1017.8 in SSW 3.2 mph 6.4 mph 67 % 0.0 in
22:52 19.8 °F 13.7 °F 1017.8 in SW 3.2 mph 6.4 mph 68 % 0.0 in
22:57 19.6 °F 13.5 °F 1017.8 in SSW 1.6 mph 6.4 mph 68 % 0.0 in
23:02 19.3 °F 13.9 °F 1017.8 in Calm   6.4 mph 71 % 0.0 in
23:12 18.6 °F 13.9 °F 1017.8 in Calm   6.4 mph 74 % 0.0 in
23:22 18.1 °F 13.8 °F 1017.8 in Calm   1.6 mph 76 % 0.0 in
23:32 17.8 °F 13.7 °F 1017.8 in Calm     77 % 0.0 in
23:42 17.3 °F 13.6 °F 1017.8 in Calm     79 % 0.0 in
23:52 16.9 °F 13.4 °F 1017.8 in Calm     80 % 0.0 in
23:57 16.8 °F 13.3 °F 1017.8 in Calm   1.6 mph 80 % 0.0 in
Meteo18
Compliments of Weather Underground - 4 mb

Script developed by  Jim McMurry - jmcmurry@mwt.net Adapted for the template by  Wim van der Kuil - Leuven-Template.eu

You find our weather info also at:

European Weather Network

Weather Underground

Equipment we use:

Weather-station
Davis Vue

Weather-program
Meteobridge

Weather-server
Raspberry PI 2 B+

Provider
1 and 1

Davis Vue

Meteobridge

Raspberry PI 2 B+

1 and 1